When you browse on this site, cookies collect data to enhance your experience and personalize the content and advertising you see.
Visit our Privacy Policy to learn more. By continuing to use the site, you agree to this use of cookies and data.
  • en France
  • Liste des pays
  • À 7 jours
  • Température de l'eau
  • Carte satellitaire
  • Carte météo
  • Widgets météo
  • user-avatar
    Se connecter

    Météo par heure à Pabna

    Ce jour, 19 Janvier, Samedi

    Heure Température Précipitation Vent Pression Humidité
    00:00 +19°C° 0 mm 2 m/s 759 mmHg 53%
    01:00 +19°C° 0 mm 2 m/s 759 mmHg 55%
    02:00 +18°C° 0 mm 2 m/s 759 mmHg 56%
    03:00 +18°C° 0 mm 2 m/s 759 mmHg 58%
    04:00 +17°C° 0 mm 2 m/s 759 mmHg 59%
    05:00 +17°C° 0 mm 2 m/s 759 mmHg 61%
    06:00 +16°C° 0 mm 1 m/s 759 mmHg 66%
    07:00 +18°C° 0 mm 2 m/s 760 mmHg 62%
    08:00 +19°C° 0 mm 2 m/s 760 mmHg 58%
    09:00 +21°C° 0 mm 2 m/s 761 mmHg 53%
    10:00 +23°C° 0 mm 2 m/s 761 mmHg 47%
    11:00 +25°C° 0 mm 2 m/s 760 mmHg 40%
    12:00 +26°C° 0 mm 2 m/s 760 mmHg 34%
    13:00 +27°C° 0 mm 2 m/s 760 mmHg 31%
    14:00 +27°C° 0 mm 2 m/s 759 mmHg 29%
    15:00 +28°C° 0 mm 2 m/s 758 mmHg 27%
    16:00 +26°C° 0 mm 2 m/s 758 mmHg 30%
    17:00 +25°C° 0 mm 1 m/s 758 mmHg 33%
    18:00 +23°C° 0 mm 1 m/s 758 mmHg 36%
    19:00 +22°C° 0 mm 1 m/s 758 mmHg 38%
    20:00 +22°C° 0 mm 1 m/s 758 mmHg 40%
    21:00 +21°C° 0 mm 1 m/s 759 mmHg 42%
    22:00 +20°C° 0 mm 2 m/s 759 mmHg 43%
    23:00 +19°C° 0 mm 2 m/s 759 mmHg 44%

    Demain, 20 Janvier, Dimanche

    Heure Température Précipitation Vent Pression Humidité
    00:00 +19°C° 0 mm 2 m/s 759 mmHg 45%
    01:00 +19°C° 0 mm 2 m/s 759 mmHg 47%
    02:00 +18°C° 0 mm 2 m/s 759 mmHg 49%
    03:00 +18°C° 0 mm 2 m/s 759 mmHg 51%
    04:00 +18°C° 0 mm 2 m/s 759 mmHg 53%
    05:00 +17°C° 0 mm 2 m/s 759 mmHg 56%
    06:00 +17°C° 0 mm 2 m/s 759 mmHg 58%
    07:00 +19°C° 0 mm 2 m/s 760 mmHg 55%
    08:00 +20°C° 0 mm 2 m/s 760 mmHg 52%
    09:00 +23°C° 0 mm 2 m/s 761 mmHg 49%
    10:00 +24°C° 0 mm 2 m/s 761 mmHg 44%
    11:00 +26°C° 0 mm 2 m/s 761 mmHg 40%
    12:00 +27°C° 0 mm 2 m/s 761 mmHg 35%
    13:00 +28°C° 0 mm 2 m/s 760 mmHg 33%
    14:00 +28°C° 0 mm 2 m/s 759 mmHg 31%
    15:00 +29°C° 0 mm 2 m/s 758 mmHg 29%
    16:00 +27°C° 0 mm 2 m/s 758 mmHg 32%
    17:00 +26°C° 0 mm 2 m/s 758 mmHg 35%
    18:00 +25°C° 0 mm 2 m/s 758 mmHg 38%
    19:00 +24°C° 0 mm 2 m/s 758 mmHg 40%
    20:00 +23°C° 0 mm 2 m/s 759 mmHg 41%
    21:00 +21°C° 0 mm 2 m/s 759 mmHg 43%
    22:00 +21°C° 0 mm 2 m/s 759 mmHg 43%
    23:00 +20°C° 0 mm 2 m/s 759 mmHg 44%

    Après-demain, 21 Janvier, Lundi

    Heure Température Précipitation Vent Pression Humidité
    00:00 +20°C° 0 mm 2 m/s 759 mmHg 44%
    01:00 +19°C° 0 mm 2 m/s 759 mmHg 46%
    02:00 +19°C° 0 mm 2 m/s 759 mmHg 47%
    03:00 +19°C° 0 mm 2 m/s 759 mmHg 49%
    04:00 +19°C° 0 mm 1 m/s 759 mmHg 50%
    05:00 +19°C° 0 mm 1 m/s 759 mmHg 52%
    06:00 +18°C° 0 mm 1 m/s 759 mmHg 53%
    07:00 +20°C° 0 mm 1 m/s 760 mmHg 49%
    08:00 +21°C° 0 mm 1 m/s 761 mmHg 45%
    09:00 +23°C° 0 mm 1 m/s 762 mmHg 41%
    10:00 +24°C° 0 mm 2 m/s 762 mmHg 37%
    11:00 +26°C° 0 mm 2 m/s 761 mmHg 33%
    12:00 +28°C° 0 mm 2 m/s 761 mmHg 29%
    13:00 +28°C° 0 mm 2 m/s 760 mmHg 28%
    14:00 +29°C° 0 mm 3 m/s 759 mmHg 27%
    15:00 +29°C° 0 mm 3 m/s 758 mmHg 25%
    16:00 +28°C° 0 mm 2 m/s 758 mmHg 28%
    17:00 +26°C° 0 mm 2 m/s 758 mmHg 31%
    18:00 +25°C° 0 mm 2 m/s 758 mmHg 34%
    19:00 +24°C° 0 mm 2 m/s 758 mmHg 35%
    20:00 +23°C° 0 mm 2 m/s 759 mmHg 37%
    21:00 +22°C° 0 mm 1 m/s 759 mmHg 38%
    22:00 +21°C° 0 mm 2 m/s 759 mmHg 39%
    23:00 +20°C° 0 mm 2 m/s 759 mmHg 40%

    22 Janvier, Mardi

    Heure Température Précipitation Vent Pression Humidité
    00:00 +20°C° 0 mm 2 m/s 759 mmHg 41%
    01:00 +19°C° 0 mm 2 m/s 758 mmHg 44%
    02:00 +19°C° 0 mm 2 m/s 758 mmHg 46%
    03:00 +18°C° 0 mm 2 m/s 758 mmHg 49%
    04:00 +19°C° 0 mm 1 m/s 758 mmHg 52%
    05:00 +19°C° 0 mm 1 m/s 758 mmHg 55%
    06:00 +18°C° 0 mm 1 m/s 758 mmHg 59%
    07:00 +20°C° 0 mm 1 m/s 759 mmHg 54%
    08:00 +20°C° 0 mm 0 m/s 760 mmHg 50%
    09:00 +21°C° 0 mm 0 m/s 761 mmHg 45%
    10:00 +25°C° 0 mm 1 m/s 761 mmHg 40%
    11:00 +26°C° 0 mm 1 m/s 761 mmHg 36%
    12:00 +28°C° 0 mm 1 m/s 760 mmHg 31%
    13:00 +29°C° 0 mm 2 m/s 760 mmHg 29%
    14:00 +29°C° 0 mm 2 m/s 759 mmHg 26%
    15:00 +30°C° 0 mm 3 m/s 758 mmHg 24%
    16:00 +29°C° 0 mm 2 m/s 758 mmHg 27%
    17:00 +27°C° 0 mm 2 m/s 758 mmHg 30%
    18:00 +25°C° 0 mm 2 m/s 758 mmHg 32%
    19:00 +24°C° 0 mm 2 m/s 758 mmHg 34%
    20:00 +24°C° 0 mm 2 m/s 759 mmHg 35%
    21:00 +23°C° 0 mm 2 m/s 759 mmHg 36%
    22:00 +21°C° 0 mm 2 m/s 759 mmHg 38%
    23:00 +22°C° 0 mm 1 m/s 759 mmHg 40%

    23 Janvier, Mercredi

    Heure Température Précipitation Vent Pression Humidité
    00:00 +21°C° 0 mm 1 m/s 759 mmHg 41%
    01:00 +21°C° 0 mm 1 m/s 759 mmHg 43%
    02:00 +20°C° 0 mm 1 m/s 758 mmHg 44%
    03:00 +20°C° 0 mm 1 m/s 758 mmHg 46%
    04:00 +20°C° 0 mm 1 m/s 758 mmHg 47%
    05:00 +19°C° 0 mm 1 m/s 759 mmHg 48%
    06:00 +19°C° 0 mm 1 m/s 759 mmHg 49%
    07:00 +21°C° 0 mm 1 m/s 760 mmHg 46%
    08:00 +23°C° 0 mm 1 m/s 761 mmHg 42%
    09:00 +24°C° 0 mm 1 m/s 761 mmHg 38%
    10:00 +26°C° 0 mm 1 m/s 761 mmHg 35%
    11:00 +28°C° 0 mm 1 m/s 761 mmHg 31%
    12:00 +29°C° 0 mm 1 m/s 761 mmHg 27%
    13:00 +30°C° 0 mm 1 m/s 760 mmHg 25%
    14:00 +31°C° 0 mm 2 m/s 759 mmHg 24%
    15:00 +31°C° 0 mm 2 m/s 758 mmHg 22%
    16:00 +30°C° 0 mm 2 m/s 758 mmHg 25%
    17:00 +28°C° 0 mm 1 m/s 758 mmHg 28%
    18:00 +26°C° 0 mm 1 m/s 758 mmHg 31%
    19:00 +26°C° 0 mm 1 m/s 758 mmHg 33%
    20:00 +25°C° 0 mm 1 m/s 758 mmHg 35%
    21:00 +24°C° 0 mm 1 m/s 759 mmHg 37%
    22:00 +24°C° 0 mm 1 m/s 759 mmHg 38%
    23:00 +23°C° 0 mm 1 m/s 759 mmHg 39%

    24 Janvier, Jeudi

    Heure Température Précipitation Vent Pression Humidité
    00:00 +23°C° 0 mm 1 m/s 759 mmHg 40%
    01:00 +22°C° 0 mm 1 m/s 758 mmHg 41%
    02:00 +22°C° 0 mm 1 m/s 758 mmHg 42%
    03:00 +22°C° 0 mm 1 m/s 758 mmHg 43%
    04:00 +21°C° 0 mm 1 m/s 759 mmHg 45%
    05:00 +21°C° 0 mm 1 m/s 759 mmHg 47%
    06:00 +20°C° 0 mm 1 m/s 759 mmHg 49%
    07:00 +21°C° 0 mm 2 m/s 760 mmHg 46%
    08:00 +24°C° 0 mm 2 m/s 761 mmHg 43%
    09:00 +25°C° 0 mm 2 m/s 762 mmHg 40%
    10:00 +27°C° 0 mm 1 m/s 762 mmHg 36%
    11:00 +29°C° 0 mm 1 m/s 761 mmHg 32%
    12:00 +30°C° 0 mm 1 m/s 761 mmHg 28%
    13:00 +31°C° 0 mm 1 m/s 760 mmHg 27%
    14:00 +31°C° 0 mm 1 m/s 759 mmHg 26%
    15:00 +32°C° 0 mm 2 m/s 759 mmHg 26%
    16:00 +30°C° 0 mm 2 m/s 758 mmHg 28%
    17:00 +29°C° 0 mm 2 m/s 758 mmHg 31%
    18:00 +28°C° 0 mm 1 m/s 758 mmHg 34%
    19:00 +27°C° 0 mm 2 m/s 759 mmHg 35%
    20:00 +26°C° 0 mm 2 m/s 759 mmHg 37%
    21:00 +25°C° 0 mm 2 m/s 759 mmHg 39%
    22:00 +24°C° 0 mm 2 m/s 759 mmHg 41%
    23:00 +24°C° 0 mm 2 m/s 759 mmHg 42%
    Voir plus